[[{"header":{"parameterUnit":"m.s-1","parameterCategory":1,"la1":30.2991,"la2":30.254,"lo1":-89.0895,"lo2":-89.0444,"dy":0.0017,"dx":0.0017,"nx":28,"ny":28,"refTime":"2024-02-13T09:00:00:Z","depth":0,"parameterNumber":2,"parameterNumberName":"U-component_of_WINDS"},"data":[0,0,0,0,0,0,0,0,0,0,0,0,0,0,0,0,0,0,0,0,0,0,0,0,0,0,0,0,0,0,0,0,0,0,0,0,0,0,0,0,0,0,0,0,0,0,0,0,0,0,0,0,0,0,0,0,0,0,-2.2156,-2.2158,0,-2.2273,-2.2274,-2.2275,-2.2195,-2.2191,-2.2188,-2.2184,-2.2306,-2.2312,-2.2319,0,0,0,0,0,0,0,0,0,0,0,0,0,-2.1867,-2.1872,-2.2156,-2.2158,-2.2159,-2.2273,-2.2274,-2.2276,-2.2195,-2.2191,-2.2187,-2.2182,-2.2304,-2.2312,-2.232,0,0,0,0,0,0,0,0,0,0,0,0,0,-2.1989,-2.1874,-2.2156,-2.2133,-2.2132,-2.2272,-2.2274,-2.2276,-2.2196,-2.2191,-2.2185,-2.218,-2.2301,-2.2311,-2.2321,-2.2491,0,0,-2.2351,-2.2355,0,0,0,0,0,0,0,0,-2.1982,-2.2,-2.2135,-2.2135,-2.2134,-2.2214,-2.2217,-2.2348,-2.2198,-2.2172,-2.2184,-2.2178,-2.228,-2.2291,-2.2325,-2.2497,-2.2502,-2.2352,-2.2358,-2.2362,-2.2365,0,0,0,0,0,0,0,-2.1974,-2.1994,-2.2202,-2.2137,-2.2136,-2.2117,-2.2129,-2.2241,-2.2255,-2.2174,-2.2168,-2.2183,-2.2279,-2.2316,-2.2327,-2.2504,-2.2352,-2.2361,-2.2367,-2.2371,-2.2822,-2.2828,0,0,0,0,0,0,-2.1967,-2.1988,-2.2199,-2.2206,-2.2043,-2.2127,-2.214,-2.2194,-2.2254,-2.2258,-2.2188,-2.2179,-2.2301,-2.2316,-2.2331,-2.2535,-2.2362,-2.2372,-2.2377,-2.2816,-2.2823,-2.283,0,0,0,0,0,0,-2.1961,-2.1987,-2.2194,-2.2095,-2.212,-2.2138,-2.2199,-2.2199,-2.2236,-2.2264,-2.2266,-2.2223,-2.2298,-2.2317,-2.2452,-2.2538,-2.2376,-2.2385,-2.2809,-2.2818,-2.2826,-2.2945,0,0,0,0,0,0,-2.1953,-2.1985,-2.2049,-2.2097,-2.2126,-2.2313,-2.2204,-2.2205,-2.2253,-2.2243,-2.2298,-2.2302,-2.2295,-2.2438,-2.2462,-2.2549,-2.2393,-2.2801,-2.2813,-2.2824,-2.2933,-2.2957,-2.2977,0,0,0,0,0,-2.1943,-2.2079,-2.2053,-2.2079,-2.2207,-2.2318,-2.2334,-2.2323,-2.226,-2.2326,-2.2344,-2.23,-2.2525,-2.2452,-2.2479,-2.257,-2.2796,-2.281,-2.2823,-2.2923,-2.2952,-2.2976,0,0,0,0,0,0,-2.2041,-2.2084,-2.2057,-2.2212,-2.2262,-2.2304,-2.2386,-2.2353,-2.2423,-2.241,-2.2394,-2.2407,-2.2548,-2.2572,-2.2491,-2.2739,-2.265,-2.267,-2.2718,-2.2745,-2.2767,-2.2758,-2.2401,0,0,0,0,0,-2.2081,-2.2167,-2.22,-2.2333,-2.236,-2.2369,-2.2417,-2.2404,-2.2455,-2.2476,-2.2504,-2.2556,-2.2638,-2.2693,-2.277,-2.2936,-2.2947,-2.3012,-2.3034,-2.3051,-2.3069,-2.3159,-2.3188,-2.2874,-2.2874,-2.2874,0,0,-2.2164,-2.2198,-2.2253,-2.2354,-2.2391,-2.2481,-2.2387,-2.2486,-2.2553,-2.2491,-2.262,-2.2642,-2.2699,-2.285,-2.2918,-2.2875,-2.3158,-2.3069,-2.3083,-2.3091,-2.3176,-2.3205,-2.3232,-2.2883,-2.2882,-2.288,0,0,-2.2361,-2.2395,-2.251,-2.2549,-2.2606,-2.2611,-2.2639,-2.2686,-2.2699,-2.2827,-2.2783,-2.2862,-2.3004,-2.3047,-2.3087,-2.33,-2.3263,-2.3326,-2.344,-2.3528,-2.3553,-2.3575,-2.3651,-2.3679,-2.3343,-2.3343,-2.3344,0,-2.2457,-2.259,-2.2574,-2.2676,-2.2722,-2.2669,-2.2786,-2.2825,-2.2905,-2.2938,-2.2888,-2.3065,-2.31,-2.3261,-2.3312,-2.3347,-2.3378,-2.332,-2.355,-2.3572,-2.3592,-2.3665,-2.3694,-2.3351,-2.335,-2.3349,-2.3348,0,-2.2706,-2.2799,-2.2885,-2.2963,-2.3018,-2.3128,-2.3129,-2.3187,-2.3169,-2.318,-2.3312,-2.3351,-2.3436,-2.3472,-2.3456,-2.3631,-2.3602,-2.3552,-2.3463,-2.363,-2.3698,-2.3726,-2.3361,-2.3359,-2.3356,-2.3355,0,0,-2.2969,-2.3036,-2.3068,-2.3103,-2.3161,-2.3233,-2.334,-2.3422,-2.3473,-2.353,-2.3619,-2.3741,-2.3694,-2.374,-2.3728,-2.3805,-2.3972,-2.3745,-2.3746,-2.3786,-2.4167,-2.4206,-2.4238,-2.3947,-2.3952,-2.3956,-2.4163,0,-2.317,-2.3356,-2.3344,-2.352,-2.3605,-2.3556,-2.365,-2.3696,-2.3709,-2.3784,-2.3798,-2.3885,-2.3816,-2.3844,-2.3917,-2.3936,-2.4048,-2.3921,-2.4031,-2.4035,-2.4019,-2.4274,-2.4315,-2.4508,-2.4189,-2.4194,-2.4197,0,-2.3429,-2.3494,-2.3678,-2.3724,-2.3759,-2.3844,-2.3918,-2.399,-2.4042,-2.4046,-2.4097,-2.4072,-2.4181,-2.4089,-2.4239,-2.4152,-2.4196,-2.4212,-2.4219,-2.423,-2.4127,-2.4292,-2.4569,-2.4598,-2.4239,-2.4236,-2.4233,0,-2.3604,-2.3737,-2.3864,-2.3895,-2.3952,-2.4012,-2.4039,-2.4085,-2.4135,-2.42,-2.4232,-2.431,-2.4352,-2.4413,-2.4409,-2.4342,-2.4562,-2.4469,-2.4569,-2.4569,-2.4618,-2.4615,-2.4907,-2.4646,-2.4645,-2.4645,-2.4644,0,-2.383,-2.3944,-2.3943,-2.4022,-2.4148,-2.4134,-2.426,-2.428,-2.4322,-2.4404,-2.4366,-2.4444,-2.4435,-2.4513,-2.4511,-2.4636,-2.4656,-2.4662,-2.466,-2.4666,-2.4665,-2.4695,-2.4682,-2.4652,-2.4651,-2.4649,-2.4648,0,-2.4046,-2.405,-2.4185,-2.4228,-2.4241,-2.4333,-2.4369,-2.4444,-2.4453,-2.4557,-2.4581,-2.4595,-2.4686,-2.4688,-2.4792,-2.4791,-2.4943,-2.4926,-2.4926,-2.4922,-2.5022,-2.5013,-2.5344,-2.5386,-2.5097,-2.51,-2.5102,0,-2.419,-2.4277,-2.4329,-2.438,-2.441,-2.4494,-2.4545,-2.4534,-2.4589,-2.4654,-2.4721,-2.4808,-2.4876,-2.5023,-2.5043,-2.5123,-2.5107,-2.5218,-2.5119,-2.5122,-2.511,-2.5105,-2.5114,-2.5238,-2.5241,-2.5243,-2.5246,0,-2.4446,-2.4444,-2.4518,-2.4593,-2.4654,-2.4713,-2.4767,-2.4812,-2.4808,-2.4871,-2.4962,-2.5016,-2.5121,-2.5208,-2.5284,-2.5312,-2.5279,-2.5276,-2.5304,-2.531,-2.5307,-2.531,-2.4979,-2.5269,-2.5267,-2.5265,-2.5264,-2.5263,-2.4631,-2.4706,-2.4754,-2.4838,-2.4878,-2.4929,-2.5001,-2.5019,-2.5095,-2.518,-2.5169,-2.5271,-2.5321,-2.542,-2.5454,-2.5534,-2.5496,-2.5536,-2.5546,-2.5556,-2.5567,-2.5294,-2.5548,-2.5548,-2.5547,-2.5546,-2.5546,0,-2.4885,-2.4914,-2.4991,-2.5068,-2.5134,-2.5096,-2.5154,-2.5212,-2.5302,-2.5351,-2.5419,-2.5524,-2.5608,-2.5635,-2.5716,-2.5775,-2.5762,-2.5797,-2.5792,-2.58,-2.5596,-2.5564,-2.5806,-2.5806,-2.5806,-2.5806,-2.5806,-2.5806,-2.5026,-2.515,-2.5154,-2.5298,-2.5325,-2.5424,-2.5461,-2.5509,-2.5548,-2.5667,-2.5736,-2.5752,-2.5793,-2.5876,-2.5952,-2.5957,-2.5989,-2.6031,-2.603,-2.584,-2.5814,-2.5789,-2.5759,-2.6038,-2.6038,-2.6227,-2.6229,-2.623]},{"header":{"parameterUnit":"m.s-1","parameterCategory":1,"la1":30.2991,"la2":30.254,"lo1":-89.0895,"lo2":-89.0444,"dy":0.0017,"dx":0.0017,"nx":28,"ny":28,"refTime":"2024-02-13T09:00:00:Z","depth":0,"parameterNumber":3,"parameterNumberName":"V-component_of_WINDS"},"data":[0,0,0,0,0,0,0,0,0,0,0,0,0,0,0,0,0,0,0,0,0,0,0,0,0,0,0,0,0,0,0,0,0,0,0,0,0,0,0,0,0,0,0,0,0,0,0,0,0,0,0,0,0,0,0,0,0,0,-2.5176,-2.5176,0,-2.5236,-2.5237,-2.5237,-2.5214,-2.5213,-2.5211,-2.521,-2.5271,-2.5274,-2.5277,0,0,0,0,0,0,0,0,0,0,0,0,0,-2.5039,-2.5041,-2.5176,-2.5176,-2.5177,-2.5236,-2.5237,-2.5238,-2.5214,-2.5213,-2.5211,-2.5209,-2.527,-2.5274,-2.5277,0,0,0,0,0,0,0,0,0,0,0,0,0,-2.5099,-2.5042,-2.5176,-2.5173,-2.5173,-2.5236,-2.5237,-2.5238,-2.5215,-2.5213,-2.521,-2.5208,-2.5269,-2.5273,-2.5278,-2.5347,0,0,-2.5291,-2.5293,0,0,0,0,0,0,0,0,-2.5095,-2.5104,-2.5172,-2.5173,-2.5173,-2.5215,-2.5211,-2.5274,-2.5215,-2.5199,-2.521,-2.5207,-2.5254,-2.526,-2.5276,-2.535,-2.5352,-2.5292,-2.5294,-2.5296,-2.5297,0,0,0,0,0,0,0,-2.5091,-2.5101,-2.52,-2.5173,-2.5174,-2.5168,-2.5174,-2.5223,-2.5238,-2.52,-2.5198,-2.5206,-2.5254,-2.5271,-2.5277,-2.5353,-2.5291,-2.5295,-2.5298,-2.53,-2.5486,-2.5488,0,0,0,0,0,0,-2.5087,-2.5098,-2.5198,-2.5201,-2.5128,-2.5172,-2.5179,-2.5204,-2.5237,-2.524,-2.5208,-2.5205,-2.5265,-2.5272,-2.5279,-2.5361,-2.5296,-2.53,-2.5303,-2.5484,-2.5486,-2.5489,0,0,0,0,0,0,-2.5084,-2.5096,-2.5195,-2.5149,-2.5161,-2.5177,-2.5205,-2.5206,-2.5224,-2.5243,-2.5245,-2.5223,-2.5264,-2.5273,-2.533,-2.5363,-2.5302,-2.5306,-2.5481,-2.5485,-2.5488,-2.5527,0,0,0,0,0,0,-2.508,-2.5095,-2.5122,-2.515,-2.5164,-2.5246,-2.5207,-2.5209,-2.5231,-2.5228,-2.5258,-2.526,-2.5263,-2.5324,-2.5334,-2.5368,-2.531,-2.5478,-2.5483,-2.5487,-2.5523,-2.5532,-2.5539,0,0,0,0,0,-2.5075,-2.5131,-2.5123,-2.5136,-2.5198,-2.5248,-2.5256,-2.5257,-2.5234,-2.5261,-2.5273,-2.5259,-2.5358,-2.533,-2.5342,-2.5377,-2.5476,-2.5481,-2.5486,-2.5519,-2.553,-2.5539,0,0,0,0,0,0,-2.5106,-2.5134,-2.5127,-2.5193,-2.5218,-2.5244,-2.5277,-2.5268,-2.5301,-2.5296,-2.5296,-2.5303,-2.5362,-2.5375,-2.5343,-2.5445,-2.5413,-2.5421,-2.5434,-2.5445,-2.5452,-2.5448,-2.5313,0,0,0,0,0,-2.5121,-2.5159,-2.5182,-2.5238,-2.5251,-2.5262,-2.5284,-2.5283,-2.5309,-2.532,-2.5336,-2.5361,-2.5398,-2.5422,-2.5457,-2.5525,-2.5531,-2.5555,-2.5563,-2.557,-2.5576,-2.5612,-2.5623,-2.5506,-2.5506,-2.5506,0,0,-2.5151,-2.5171,-2.5196,-2.5245,-2.5264,-2.5303,-2.5271,-2.5314,-2.5343,-2.5326,-2.5381,-2.5394,-2.5422,-2.5485,-2.5513,-2.5498,-2.561,-2.5576,-2.5581,-2.5584,-2.5619,-2.563,-2.564,-2.551,-2.5509,-2.5508,0,0,-2.5227,-2.5246,-2.5295,-2.5315,-2.5344,-2.5351,-2.5363,-2.539,-2.5398,-2.5453,-2.544,-2.5475,-2.5538,-2.5558,-2.5577,-2.566,-2.5648,-2.5671,-2.5712,-2.5748,-2.5757,-2.5765,-2.5794,-2.5804,-2.5678,-2.5678,-2.5678,0,-2.526,-2.532,-2.5321,-2.5365,-2.5386,-2.5372,-2.5421,-2.544,-2.548,-2.5495,-2.5477,-2.5555,-2.5574,-2.564,-2.5661,-2.5676,-2.5689,-2.5667,-2.5755,-2.5764,-2.5771,-2.5799,-2.5809,-2.568,-2.568,-2.568,-2.5679,0,-2.5359,-2.5401,-2.5436,-2.5475,-2.55,-2.5547,-2.5554,-2.5579,-2.5576,-2.5585,-2.564,-2.5662,-2.57,-2.5716,-2.5714,-2.5783,-2.5772,-2.5755,-2.5723,-2.5785,-2.5811,-2.5821,-2.5684,-2.5683,-2.5682,-2.5682,0,0,-2.5456,-2.5494,-2.5507,-2.5524,-2.5556,-2.5587,-2.5632,-2.567,-2.5692,-2.5719,-2.5757,-2.581,-2.5795,-2.5816,-2.5815,-2.5846,-2.5909,-2.5825,-2.5826,-2.5839,-2.5985,-2.5998,-2.601,-2.5902,-2.5904,-2.5905,-2.5983,0,-2.5533,-2.5613,-2.5615,-2.5688,-2.5725,-2.5712,-2.5751,-2.5774,-2.5784,-2.5816,-2.5826,-2.5864,-2.5841,-2.5853,-2.5883,-2.5895,-2.5938,-2.589,-2.5936,-2.5937,-2.5929,-2.6023,-2.6036,-2.6109,-2.5993,-2.5994,-2.5996,0,-2.5634,-2.5665,-2.5742,-2.5767,-2.5783,-2.5818,-2.5852,-2.5884,-2.591,-2.5914,-2.5938,-2.5932,-2.5978,-2.5944,-2.6007,-2.5973,-2.5992,-2.6001,-2.6004,-2.6008,-2.597,-2.6029,-2.6132,-2.6142,-2.6012,-2.601,-2.6009,0,-2.5696,-2.5757,-2.581,-2.5825,-2.5856,-2.5881,-2.5895,-2.5919,-2.5941,-2.5971,-2.5985,-2.602,-2.6039,-2.6066,-2.607,-2.6045,-2.6132,-2.6099,-2.6136,-2.6136,-2.6155,-2.6153,-2.6261,-2.6168,-2.6168,-2.6168,-2.6167,0,-2.5782,-2.5829,-2.5838,-2.5871,-2.5923,-2.5924,-2.5976,-2.5988,-2.6009,-2.6043,-2.6034,-2.6067,-2.607,-2.6103,-2.6107,-2.6157,-2.6166,-2.617,-2.617,-2.6171,-2.617,-2.6183,-2.6178,-2.6171,-2.617,-2.6169,-2.6169,0,-2.586,-2.5868,-2.5925,-2.595,-2.5957,-2.5994,-2.6015,-2.6046,-2.6054,-2.6098,-2.6108,-2.612,-2.6159,-2.6166,-2.6211,-2.6213,-2.6273,-2.6269,-2.6265,-2.6264,-2.63,-2.6297,-2.642,-2.6436,-2.6333,-2.6334,-2.6335,0,-2.5914,-2.595,-2.5978,-2.6001,-2.6016,-2.6052,-2.6075,-2.6077,-2.6101,-2.6133,-2.616,-2.6197,-2.6227,-2.629,-2.6303,-2.6337,-2.6333,-2.6374,-2.6338,-2.6337,-2.6333,-2.633,-2.6333,-2.638,-2.6381,-2.6382,-2.6383,0,-2.6009,-2.6011,-2.6044,-2.6078,-2.6105,-2.6132,-2.6158,-2.6177,-2.6182,-2.6209,-2.6249,-2.6272,-2.6318,-2.6355,-2.639,-2.6403,-2.6394,-2.6394,-2.6404,-2.6405,-2.6401,-2.6403,-2.6283,-2.6391,-2.639,-2.639,-2.6389,-2.6389,-2.6076,-2.6107,-2.6132,-2.6168,-2.6188,-2.6212,-2.6242,-2.6253,-2.6286,-2.6324,-2.6323,-2.6366,-2.639,-2.6435,-2.6451,-2.6484,-2.6471,-2.6487,-2.649,-2.6494,-2.6497,-2.6396,-2.6491,-2.6491,-2.649,-2.649,-2.649,0,-2.617,-2.6185,-2.6219,-2.6255,-2.6283,-2.6272,-2.6299,-2.6324,-2.6362,-2.6385,-2.6415,-2.646,-2.6496,-2.6511,-2.6546,-2.657,-2.6566,-2.6579,-2.6577,-2.658,-2.6507,-2.6494,-2.6581,-2.6581,-2.6581,-2.6581,-2.6581,-2.6581,-2.6222,-2.6273,-2.6278,-2.6339,-2.6353,-2.6395,-2.6412,-2.6434,-2.6452,-2.6502,-2.6532,-2.6542,-2.6562,-2.6598,-2.663,-2.6634,-2.6647,-2.6661,-2.6663,-2.6595,-2.6585,-2.6576,-2.6564,-2.6664,-2.6665,-2.6733,-2.6734,-2.6734]}]]